VKG414 EKCH-LTAI

Flight info

Callsign VKG414
Flight time 3h 1m
Altitude 35000
Route SIMEG Z493 BILRA DCT BABKO DCT NARKA DCT VIKBI DCT ADORU UG80 EKI UL606 CRD UL854 KOZLU
Aircraft A321/M-SDE3FGHIRWY/LB1

Departure

Time 2026-04-24 12:51
Airport Copenhagen Kastrup Airport (EKCH)

Arrival

Time 2026-04-24 15:53
Airport Antalya International Airport (LTAI)
Time Latitude Longitude Altitude Speed Heading
2026-04-24 12:09 55.62704 12.65393 24 ft 0 kts 27°
2026-04-24 12:35 55.62694 12.65384 24 ft 4 kts 27°
2026-04-24 12:36 55.62675 12.65368 27 ft 3 kts 27°
2026-04-24 12:36 55.62652 12.65344 27 ft 4 kts 33°
2026-04-24 12:36 55.62630 12.65321 26 ft 4 kts
2026-04-24 12:36 55.62608 12.65320 27 ft 4 kts 359°
2026-04-24 12:37 55.62600 12.65320 25 ft 0 kts 359°
2026-04-24 12:39 55.62605 12.65320 26 ft 4 kts 359°
2026-04-24 12:39 55.62648 12.65285 24 ft 8 kts 302°
2026-04-24 12:39 55.62636 12.65201 25 ft 8 kts 223°
2026-04-24 12:40 55.62554 12.65182 24 ft 15 kts 179°
2026-04-24 12:40 55.62452 12.65193 24 ft 14 kts 174°
2026-04-24 12:40 55.62365 12.65203 24 ft 12 kts 178°
2026-04-24 12:40 55.62268 12.65199 24 ft 17 kts 184°
2026-04-24 12:41 55.62160 12.65122 25 ft 16 kts 213°
2026-04-24 12:41 55.62074 12.65023 24 ft 14 kts 213°
2026-04-24 12:41 55.62001 12.64937 24 ft 12 kts 214°
2026-04-24 12:41 55.61935 12.64860 23 ft 11 kts 212°
2026-04-24 12:42 55.61874 12.64792 25 ft 12 kts 213°
2026-04-24 12:42 55.61790 12.64697 24 ft 17 kts 213°
2026-04-24 12:42 55.61685 12.64574 24 ft 18 kts 213°
2026-04-24 12:42 55.61584 12.64459 24 ft 16 kts 213°
2026-04-24 12:43 55.61496 12.64358 24 ft 14 kts 213°
2026-04-24 12:43 55.61420 12.64270 26 ft 12 kts 213°
2026-04-24 12:43 55.61350 12.64190 24 ft 14 kts 213°
2026-04-24 12:43 55.61254 12.64079 24 ft 19 kts 213°
2026-04-24 12:44 55.61135 12.63943 24 ft 20 kts 213°
2026-04-24 12:44 55.61025 12.63817 24 ft 18 kts 213°
2026-04-24 12:44 55.60942 12.63721 24 ft 10 kts 213°
2026-04-24 12:44 55.60888 12.63659 24 ft 8 kts 213°
2026-04-24 12:45 55.60834 12.63597 25 ft 11 kts 213°
2026-04-24 12:45 55.60762 12.63515 24 ft 14 kts 213°
2026-04-24 12:45 55.60679 12.63418 25 ft 14 kts 216°
2026-04-24 12:45 55.60607 12.63316 24 ft 12 kts 221°
2026-04-24 12:46 55.60548 12.63224 24 ft 10 kts 221°
2026-04-24 12:46 55.60499 12.63148 25 ft 8 kts 221°
2026-04-24 12:46 55.60452 12.63113 24 ft 7 kts 181°
2026-04-24 12:46 55.60415 12.63141 24 ft 5 kts 139°
2026-04-24 12:47 55.60405 12.63159 24 ft 0 kts 133°
2026-04-24 12:48 55.60397 12.63174 24 ft 5 kts 133°
2026-04-24 12:48 55.60361 12.63245 25 ft 8 kts 130°
2026-04-24 12:48 55.60338 12.63297 28 ft 4 kts 128°
2026-04-24 12:49 55.60339 12.63345 27 ft 4 kts 47°
2026-04-24 12:49 55.60348 12.63358 31 ft 0 kts 42°
2026-04-24 12:50 55.60350 12.63361 30 ft 4 kts 42°
2026-04-24 12:50 55.60533 12.63646 24 ft 69 kts 41°
2026-04-24 12:50 55.61047 12.64441 23 ft 124 kts 41°
2026-04-24 12:51 55.61805 12.65619 33 ft 164 kts 40°
2026-04-24 12:51 55.62685 12.66985 484 ft 168 kts 38°
2026-04-24 12:51 55.63570 12.68360 1160 ft 170 kts 34°
2026-04-24 12:51 55.64457 12.69739 1686 ft 170 kts 35°
2026-04-24 12:52 55.65344 12.71110 2135 ft 170 kts 34°
2026-04-24 12:52 55.66247 12.72463 2610 ft 170 kts 33°
2026-04-24 12:52 55.67152 12.73804 3097 ft 169 kts 34°
2026-04-24 12:52 55.68083 12.75179 3337 ft 183 kts 34°
2026-04-24 12:53 55.69109 12.76694 3475 ft 201 kts 34°
2026-04-24 12:53 55.70228 12.78375 3585 ft 224 kts 40°
2026-04-24 12:53 55.71069 12.80877 3761 ft 255 kts 73°
2026-04-24 12:53 55.71071 12.84125 4194 ft 274 kts 100°
2026-04-24 12:54 55.70268 12.87229 4822 ft 284 kts 128°
2026-04-24 12:54 55.68785 12.89593 5470 ft 289 kts 141°
2026-04-24 12:54 55.67195 12.91803 6138 ft 292 kts 141°
2026-04-24 12:54 55.65588 12.94038 6775 ft 296 kts 141°
2026-04-24 12:55 55.63962 12.96307 7398 ft 299 kts 141°
2026-04-24 12:55 55.62323 12.98598 8006 ft 302 kts 141°
2026-04-24 12:55 55.60663 13.00919 8617 ft 306 kts 141°
2026-04-24 12:55 55.58986 13.03263 9225 ft 309 kts 141°
2026-04-24 12:56 55.57288 13.05630 9839 ft 313 kts 142°
2026-04-24 12:56 55.55562 13.08035 10282 ft 322 kts 142°
2026-04-24 12:56 55.53746 13.10558 10401 ft 342 kts 142°
2026-04-24 12:56 55.51820 13.13230 10528 ft 362 kts 142°
2026-04-24 12:57 55.49796 13.16033 10751 ft 376 kts 142°
2026-04-24 12:57 55.47726 13.18897 11249 ft 381 kts 142°
2026-04-24 12:57 55.45627 13.21797 11772 ft 385 kts 142°
2026-04-24 12:57 55.43515 13.24712 12316 ft 388 kts 142°
2026-04-24 12:58 55.41377 13.27666 12873 ft 392 kts 142°
2026-04-24 12:58 55.39220 13.30643 13424 ft 396 kts 142°
2026-04-24 12:58 55.37045 13.33634 13950 ft 399 kts 142°
2026-04-24 12:58 55.34846 13.36652 14443 ft 402 kts 142°
2026-04-24 12:59 55.32637 13.39681 14933 ft 405 kts 142°
2026-04-24 12:59 55.30405 13.42732 15423 ft 407 kts 142°
2026-04-24 12:59 55.28163 13.45792 15897 ft 410 kts 142°
2026-04-24 12:59 55.26638 13.47872 16226 ft 412 kts 142°
2026-04-24 13:00 55.24480 13.51197 16681 ft 414 kts 133°
2026-04-24 13:00 55.22573 13.55002 17149 ft 417 kts 130°
2026-04-24 13:00 55.20673 13.58863 17609 ft 419 kts 130°
2026-04-24 13:00 55.18758 13.62734 18061 ft 422 kts 130°
2026-04-24 13:01 55.16825 13.66620 18482 ft 425 kts 130°
2026-04-24 13:01 55.14875 13.70525 18860 ft 428 kts 130°
2026-04-24 13:01 55.12917 13.74442 19224 ft 430 kts 131°
2026-04-24 13:01 55.10939 13.78399 19591 ft 433 kts 131°
2026-04-24 13:02 55.08952 13.82375 19953 ft 436 kts 131°
2026-04-24 13:02 55.06951 13.86371 20311 ft 439 kts 131°
2026-04-24 13:02 55.04934 13.90391 20676 ft 442 kts 131°
2026-04-24 13:02 55.02903 13.94427 21022 ft 445 kts 131°
2026-04-24 13:03 55.00853 13.98493 21369 ft 447 kts 131°
2026-04-24 13:03 54.98793 14.02576 21722 ft 450 kts 131°
2026-04-24 13:03 54.96718 14.06683 22065 ft 453 kts 131°
2026-04-24 13:03 54.94632 14.10801 22414 ft 456 kts 131°
2026-04-24 13:04 54.92508 14.14907 22754 ft 458 kts 135°
2026-04-24 13:04 54.90105 14.18559 23079 ft 460 kts 145°
2026-04-24 13:04 54.87482 14.21766 23424 ft 462 kts 146°
2026-04-24 13:04 54.84839 14.24967 23732 ft 465 kts 147°
2026-04-24 13:05 54.82182 14.28183 24016 ft 467 kts 147°
2026-04-24 13:05 54.79509 14.31417 24295 ft 469 kts 147°
2026-04-24 13:05 54.76825 14.34646 24565 ft 471 kts 147°
2026-04-24 13:05 54.74098 14.37843 24839 ft 474 kts 148°
2026-04-24 13:06 54.71348 14.40987 25111 ft 475 kts 149°
2026-04-24 13:06 54.68568 14.44115 25383 ft 477 kts 149°
2026-04-24 13:06 54.65772 14.47238 25648 ft 480 kts 149°
2026-04-24 13:06 54.62970 14.50376 25916 ft 482 kts 149°
2026-04-24 13:07 54.60158 14.53543 26166 ft 484 kts 149°
2026-04-24 13:07 54.57335 14.56737 26435 ft 486 kts 149°
2026-04-24 13:07 54.54504 14.59943 26694 ft 488 kts 149°
2026-04-24 13:07 54.51659 14.63159 26952 ft 490 kts 149°
2026-04-24 13:08 54.48810 14.66369 27204 ft 492 kts 149°
2026-04-24 13:08 54.45934 14.69600 27455 ft 494 kts 149°
2026-04-24 13:08 54.43057 14.72829 27695 ft 495 kts 149°
2026-04-24 13:09 54.37257 14.79318 28163 ft 499 kts 149°
2026-04-24 13:09 54.34340 14.82571 28397 ft 501 kts 149°
2026-04-24 13:09 54.31414 14.85829 28625 ft 502 kts 149°
2026-04-24 13:09 54.28478 14.89092 28866 ft 504 kts 149°
2026-04-24 13:10 54.25533 14.92355 29085 ft 506 kts 149°
2026-04-24 13:10 54.22573 14.95631 29378 ft 506 kts 149°
2026-04-24 13:10 54.19618 14.98900 29719 ft 505 kts 149°
2026-04-24 13:10 54.16670 15.02159 30060 ft 505 kts 150°
2026-04-24 13:11 54.13723 15.05404 30331 ft 504 kts 150°
2026-04-24 13:11 54.10774 15.08648 30587 ft 504 kts 150°
2026-04-24 13:11 54.07826 15.11886 30849 ft 504 kts 150°
2026-04-24 13:11 54.04889 15.15102 31110 ft 504 kts 150°
2026-04-24 13:12 54.01933 15.18330 31372 ft 503 kts 150°
2026-04-24 13:12 53.98989 15.21543 31638 ft 503 kts 150°
2026-04-24 13:12 53.96040 15.24760 31895 ft 503 kts 150°
2026-04-24 13:12 53.93093 15.27973 32155 ft 503 kts 150°
2026-04-24 13:13 53.90146 15.31177 32403 ft 503 kts 150°
2026-04-24 13:13 53.87202 15.34373 32646 ft 503 kts 150°
2026-04-24 13:13 53.84256 15.37565 32897 ft 503 kts 150°
2026-04-24 13:13 53.81298 15.40759 33032 ft 503 kts 150°
2026-04-24 13:14 53.75431 15.47080 33051 ft 499 kts 150°
2026-04-24 13:14 53.69585 15.53367 33048 ft 498 kts 150°
2026-04-24 13:15 53.63736 15.59649 33046 ft 499 kts 150°
2026-04-24 13:15 53.57873 15.65904 33046 ft 499 kts 150°
2026-04-24 13:16 53.52011 15.72140 33038 ft 498 kts 150°
2026-04-24 13:16 53.46147 15.78360 33037 ft 499 kts 150°
2026-04-24 13:17 53.40279 15.84568 33035 ft 499 kts 150°
2026-04-24 13:17 53.34404 15.90760 33036 ft 499 kts 150°
2026-04-24 13:18 53.28531 15.96913 33037 ft 499 kts 150°
2026-04-24 13:18 53.22645 16.03087 33031 ft 499 kts 150°
2026-04-24 13:19 53.16759 16.09247 33035 ft 499 kts 150°
2026-04-24 13:19 53.10870 16.15365 33032 ft 499 kts 150°
2026-04-24 13:20 53.04977 16.21468 33031 ft 499 kts 150°
2026-04-24 13:20 52.99092 16.27556 33029 ft 498 kts 150°
2026-04-24 13:21 52.93207 16.33617 33023 ft 498 kts 150°
2026-04-24 13:21 52.87319 16.39659 33022 ft 498 kts 150°
2026-04-24 13:22 52.81421 16.45687 33024 ft 498 kts 150°
2026-04-24 13:22 52.75534 16.51687 33026 ft 497 kts 150°
2026-04-24 13:23 52.69638 16.57677 33031 ft 497 kts 150°
2026-04-24 13:23 52.63747 16.63647 33034 ft 497 kts 150°
2026-04-24 13:24 52.57850 16.69615 33036 ft 497 kts 150°
2026-04-24 13:24 52.51950 16.75549 33044 ft 497 kts 150°
2026-04-24 13:25 52.46045 16.81472 33049 ft 497 kts 150°
2026-04-24 13:25 52.40139 16.87393 33048 ft 497 kts 150°
2026-04-24 13:26 52.34246 16.93280 33050 ft 497 kts 150°
2026-04-24 13:26 52.28319 16.99173 33046 ft 498 kts 150°
2026-04-24 13:27 52.22402 17.05026 33045 ft 498 kts 150°
2026-04-24 13:27 52.16477 17.10876 33045 ft 498 kts 150°
2026-04-24 13:28 52.10560 17.16708 33042 ft 497 kts 150°
2026-04-24 13:28 52.04630 17.22522 33050 ft 497 kts 150°
2026-04-24 13:29 51.98708 17.28313 33040 ft 497 kts 150°
2026-04-24 13:29 51.92784 17.34103 33046 ft 497 kts 149°
2026-04-24 13:30 51.86864 17.39865 33051 ft 497 kts 150°
2026-04-24 13:30 51.80926 17.45618 33054 ft 497 kts 149°
2026-04-24 13:31 51.74998 17.51346 33059 ft 497 kts 149°
2026-04-24 13:31 51.69059 17.57067 33049 ft 497 kts 149°
2026-04-24 13:32 51.63125 17.62765 33047 ft 496 kts 149°
2026-04-24 13:32 51.57208 17.68438 33046 ft 496 kts 149°
2026-04-24 13:33 51.51271 17.74113 33054 ft 496 kts 149°
2026-04-24 13:33 51.45335 17.79773 33049 ft 496 kts 149°
2026-04-24 13:34 51.39404 17.85389 33064 ft 495 kts 149°
2026-04-24 13:34 51.33476 17.90986 33044 ft 495 kts 149°
2026-04-24 13:35 51.27542 17.96569 33051 ft 494 kts 149°
2026-04-24 13:35 51.21618 18.02138 33038 ft 494 kts 149°
2026-04-24 13:36 51.15695 18.07713 33054 ft 494 kts 149°
2026-04-24 13:36 51.09768 18.13265 33037 ft 494 kts 149°
2026-04-24 13:37 51.03838 18.18789 33039 ft 494 kts 149°
2026-04-24 13:37 50.97906 18.24291 33050 ft 494 kts 149°
2026-04-24 13:38 50.91975 18.29783 33042 ft 493 kts 149°
2026-04-24 13:38 50.87045 18.34333 33041 ft 493 kts 149°
2026-04-24 13:39 50.81110 18.39800 33040 ft 493 kts 149°
2026-04-24 13:39 50.75137 18.45286 33037 ft 493 kts 149°
2026-04-24 13:40 50.69245 18.50676 33048 ft 493 kts 149°
2026-04-24 13:40 50.63275 18.56126 33037 ft 493 kts 149°
2026-04-24 13:41 50.57340 18.61528 33039 ft 493 kts 149°
2026-04-24 13:41 50.51403 18.66917 33049 ft 492 kts 149°
2026-04-24 13:42 50.45511 18.72253 33041 ft 492 kts 149°
2026-04-24 13:42 50.39543 18.77633 33045 ft 492 kts 149°
2026-04-24 13:43 50.33614 18.82972 33034 ft 491 kts 149°
2026-04-24 13:43 50.27705 18.88288 33035 ft 491 kts 149°
2026-04-24 13:44 50.21768 18.93600 33050 ft 491 kts 149°
2026-04-24 13:44 50.15836 18.98881 33045 ft 491 kts 149°
2026-04-24 13:45 50.09916 19.04151 33040 ft 490 kts 149°
2026-04-24 13:45 50.03988 19.09413 33041 ft 490 kts 149°
2026-04-24 13:46 49.98068 19.14653 33042 ft 490 kts 149°
2026-04-24 13:46 49.92133 19.19879 33032 ft 490 kts 149°
2026-04-24 13:47 49.86208 19.25079 33038 ft 489 kts 149°
2026-04-24 13:47 49.80290 19.30265 33032 ft 489 kts 149°
2026-04-24 13:48 49.74367 19.35444 33033 ft 488 kts 149°
2026-04-24 13:48 49.68502 19.40565 33030 ft 489 kts 149°
2026-04-24 13:49 49.62520 19.45773 33041 ft 489 kts 149°
2026-04-24 13:49 49.56872 19.51535 33035 ft 488 kts 143°
2026-04-24 13:50 49.51297 19.57493 33043 ft 487 kts 143°
2026-04-24 13:50 49.45723 19.63420 33041 ft 487 kts 143°
2026-04-24 13:51 49.40144 19.69343 33041 ft 487 kts 143°
2026-04-24 13:51 49.34575 19.75233 33037 ft 486 kts 143°
2026-04-24 13:52 49.28999 19.81116 33026 ft 486 kts 143°
2026-04-24 13:52 49.23429 19.86993 33025 ft 486 kts 143°
2026-04-24 13:53 49.17856 19.92836 33008 ft 486 kts 143°
2026-04-24 13:53 49.12278 19.98661 33003 ft 486 kts 143°
2026-04-24 13:54 49.06705 20.04480 33007 ft 485 kts 143°
2026-04-24 13:54 49.01128 20.10290 33007 ft 485 kts 143°
2026-04-24 13:55 48.95552 20.16081 33005 ft 485 kts 143°
2026-04-24 13:55 48.89980 20.21849 33008 ft 484 kts 143°
2026-04-24 13:56 48.87201 20.24721 33117 ft 483 kts 143°
2026-04-24 13:56 48.84419 20.27592 33385 ft 483 kts 143°
2026-04-24 13:56 48.81641 20.30454 33656 ft 482 kts 143°
2026-04-24 13:56 48.78866 20.33309 33929 ft 482 kts 143°
2026-04-24 13:57 48.76097 20.36155 34167 ft 481 kts 143°
2026-04-24 13:57 48.73326 20.39001 34408 ft 480 kts 143°
2026-04-24 13:57 48.70566 20.41831 34647 ft 479 kts 143°
2026-04-24 13:57 48.67805 20.44660 34883 ft 479 kts 143°
2026-04-24 13:58 48.62251 20.50330 34980 ft 485 kts 143°
2026-04-24 13:58 48.56651 20.56028 34982 ft 486 kts 143°
2026-04-24 13:59 48.51050 20.61725 34981 ft 486 kts 143°
2026-04-24 13:59 48.45442 20.67406 34985 ft 486 kts 143°
2026-04-24 14:00 48.39827 20.73077 34990 ft 486 kts 143°
2026-04-24 14:00 48.34209 20.78722 34995 ft 486 kts 143°
2026-04-24 14:01 48.28595 20.84364 35000 ft 485 kts 143°
2026-04-24 14:01 48.22991 20.89996 35003 ft 485 kts 143°
2026-04-24 14:02 48.17384 20.95602 35001 ft 484 kts 143°
2026-04-24 14:02 48.11776 21.01192 34999 ft 484 kts 143°
2026-04-24 14:03 48.06176 21.06767 35006 ft 483 kts 143°
2026-04-24 14:03 48.00576 21.12315 35006 ft 483 kts 143°
2026-04-24 14:04 47.94977 21.17844 35007 ft 483 kts 143°
2026-04-24 14:04 47.89377 21.23362 35011 ft 482 kts 143°
2026-04-24 14:05 47.83776 21.28873 35010 ft 482 kts 143°
2026-04-24 14:05 47.78180 21.34370 35011 ft 482 kts 143°
2026-04-24 14:06 47.72585 21.39849 35008 ft 482 kts 143°
2026-04-24 14:06 47.66981 21.45308 35011 ft 482 kts 143°
2026-04-24 14:07 47.61382 21.50759 35007 ft 481 kts 143°
2026-04-24 14:07 47.55785 21.56199 35003 ft 481 kts 143°
2026-04-24 14:08 47.50173 21.61624 35003 ft 481 kts 143°
2026-04-24 14:08 47.44565 21.67033 34996 ft 481 kts 143°
2026-04-24 14:09 47.38960 21.72439 35006 ft 481 kts 143°
2026-04-24 14:09 47.33352 21.77833 34999 ft 481 kts 143°
2026-04-24 14:10 47.27751 21.83210 35002 ft 481 kts 143°
2026-04-24 14:10 47.22138 21.88604 35010 ft 481 kts 142°
2026-04-24 14:11 47.16593 21.94129 35029 ft 481 kts 141°
2026-04-24 14:12 47.08302 22.02457 35011 ft 481 kts 142°
2026-04-24 14:12 47.02752 22.07950 35015 ft 481 kts 142°
2026-04-24 14:13 46.97191 22.13419 35007 ft 481 kts 142°
2026-04-24 14:13 46.91637 22.18884 35009 ft 481 kts 142°
2026-04-24 14:14 46.86112 22.24323 35019 ft 481 kts 142°
2026-04-24 14:14 46.77758 22.32490 35040 ft 480 kts 142°
2026-04-24 14:15 46.72206 22.37915 35036 ft 480 kts 142°
2026-04-24 14:15 46.66655 22.43327 35031 ft 480 kts 142°
2026-04-24 14:16 46.61102 22.48721 35046 ft 480 kts 142°
2026-04-24 14:17 46.52771 22.56786 35036 ft 479 kts 142°
2026-04-24 14:17 46.45341 22.63943 35037 ft 479 kts 142°
2026-04-24 14:18 46.39830 22.69248 35031 ft 478 kts 142°
2026-04-24 14:18 46.34286 22.74570 35026 ft 478 kts 142°
2026-04-24 14:19 46.28713 22.79912 35022 ft 477 kts 142°
2026-04-24 14:19 46.23170 22.85208 35016 ft 477 kts 142°
2026-04-24 14:20 46.17678 22.90436 35011 ft 476 kts 142°
2026-04-24 14:20 46.12145 22.95685 35008 ft 476 kts 142°
2026-04-24 14:21 46.06572 23.00958 35003 ft 476 kts 142°
2026-04-24 14:21 46.01045 23.06190 35003 ft 476 kts 142°
2026-04-24 14:22 45.95507 23.11429 35003 ft 476 kts 142°
2026-04-24 14:23 45.87243 23.19202 34999 ft 476 kts 142°
2026-04-24 14:23 45.81694 23.24390 34996 ft 476 kts 142°
2026-04-24 14:24 45.76152 23.29571 34996 ft 475 kts 142°
2026-04-24 14:24 45.70578 23.34774 34991 ft 475 kts 142°
2026-04-24 14:25 45.65080 23.39891 34988 ft 475 kts 143°
2026-04-24 14:25 45.59496 23.45079 34987 ft 475 kts 142°
2026-04-24 14:26 45.53988 23.50183 34980 ft 475 kts 143°
2026-04-24 14:26 45.48445 23.55307 34979 ft 475 kts 143°
2026-04-24 14:27 45.42860 23.60449 34972 ft 475 kts 143°
2026-04-24 14:27 45.37334 23.65524 34970 ft 475 kts 143°
2026-04-24 14:28 45.31782 23.70629 34959 ft 475 kts 143°
2026-04-24 14:28 45.26239 23.75716 34958 ft 474 kts 143°
2026-04-24 14:29 45.20651 23.80812 34949 ft 474 kts 143°
2026-04-24 14:29 45.15108 23.85853 34948 ft 474 kts 143°
2026-04-24 14:30 45.10501 23.90038 34948 ft 473 kts 143°
2026-04-24 14:30 45.04028 23.95915 34945 ft 472 kts 143°
2026-04-24 14:31 44.98501 24.00918 34940 ft 472 kts 143°
2026-04-24 14:31 44.92965 24.05914 34939 ft 472 kts 143°
2026-04-24 14:32 44.87428 24.10897 34937 ft 472 kts 143°
2026-04-24 14:32 44.81893 24.15872 34934 ft 472 kts 143°
2026-04-24 14:33 44.76349 24.20831 34933 ft 472 kts 143°
2026-04-24 14:33 44.70801 24.25784 34936 ft 472 kts 143°
2026-04-24 14:34 44.65256 24.30731 34934 ft 472 kts 143°
2026-04-24 14:34 44.59713 24.35677 34934 ft 472 kts 143°
2026-04-24 14:35 44.54163 24.40612 34936 ft 473 kts 143°
2026-04-24 14:35 44.48643 24.45515 34937 ft 473 kts 143°
2026-04-24 14:36 44.43046 24.50468 34942 ft 473 kts 143°
2026-04-24 14:36 44.37481 24.55364 34942 ft 473 kts 143°
2026-04-24 14:37 44.31914 24.60264 34943 ft 473 kts 143°
2026-04-24 14:37 44.26347 24.65153 34944 ft 473 kts 143°
2026-04-24 14:38 44.20737 24.69963 34946 ft 473 kts 144°
2026-04-24 14:38 44.15075 24.74648 34948 ft 473 kts 144°
2026-04-24 14:39 44.09422 24.79313 34947 ft 473 kts 144°
2026-04-24 14:39 44.03806 24.83986 34942 ft 473 kts 144°
2026-04-24 14:40 43.98125 24.88713 34941 ft 473 kts 144°
2026-04-24 14:40 43.92518 24.93364 34948 ft 473 kts 144°
2026-04-24 14:41 43.86836 24.98065 34944 ft 473 kts 144°
2026-04-24 14:41 43.81223 25.02699 34950 ft 472 kts 144°
2026-04-24 14:42 43.76493 25.06590 34940 ft 472 kts 144°
2026-04-24 14:42 43.69924 25.11982 34947 ft 472 kts 144°
2026-04-24 14:43 43.64232 25.16648 34947 ft 472 kts 144°
2026-04-24 14:43 43.58581 25.21271 34949 ft 472 kts 144°
2026-04-24 14:44 43.52932 25.25877 34949 ft 472 kts 144°
2026-04-24 14:44 43.47283 25.30474 34948 ft 471 kts 144°
2026-04-24 14:45 43.41640 25.35065 34950 ft 471 kts 144°
2026-04-24 14:45 43.36008 25.39636 34946 ft 470 kts 144°
2026-04-24 14:46 43.30375 25.44193 34956 ft 470 kts 144°
2026-04-24 14:46 43.24743 25.48738 34960 ft 469 kts 144°
2026-04-24 14:47 43.20066 25.52502 34961 ft 468 kts 144°
2026-04-24 14:47 43.13505 25.57783 34962 ft 468 kts 144°
2026-04-24 14:48 43.07885 25.62278 34963 ft 467 kts 144°
2026-04-24 14:48 43.02275 25.66772 34956 ft 467 kts 144°
2026-04-24 14:49 42.96669 25.71252 34957 ft 467 kts 144°
2026-04-24 14:49 42.91059 25.75724 34958 ft 467 kts 144°
2026-04-24 14:50 42.85452 25.80175 34958 ft 466 kts 144°
2026-04-24 14:50 42.79856 25.84613 34958 ft 465 kts 144°
2026-04-24 14:51 42.74261 25.89046 34955 ft 465 kts 144°
2026-04-24 14:51 42.68666 25.93472 34943 ft 465 kts 144°
2026-04-24 14:52 42.63068 25.97883 34953 ft 466 kts 145°
2026-04-24 14:52 42.57455 26.02295 34957 ft 466 kts 145°
2026-04-24 14:53 42.51848 26.06694 34958 ft 465 kts 145°
2026-04-24 14:53 42.46244 26.11083 34959 ft 465 kts 145°
2026-04-24 14:54 42.40640 26.15461 34955 ft 465 kts 145°
2026-04-24 14:54 42.35043 26.19836 34956 ft 464 kts 145°
2026-04-24 14:55 42.30397 26.23459 34959 ft 464 kts 145°
2026-04-24 14:55 42.23866 26.28532 34960 ft 463 kts 145°
2026-04-24 14:56 42.19222 26.32133 34961 ft 463 kts 145°
2026-04-24 14:56 42.13646 26.36449 34962 ft 462 kts 145°
2026-04-24 14:57 42.08068 26.40757 34966 ft 462 kts 146°
2026-04-24 14:57 42.02489 26.45051 34969 ft 462 kts 146°
2026-04-24 14:58 41.96917 26.49333 34968 ft 461 kts 145°
2026-04-24 14:58 41.91343 26.53616 34965 ft 461 kts 146°
2026-04-24 14:59 41.85864 26.58050 34966 ft 457 kts 140°
2026-04-24 14:59 41.80676 26.62980 34968 ft 457 kts 140°
2026-04-24 15:00 41.75474 26.67889 34968 ft 457 kts 140°
2026-04-24 15:00 41.70286 26.72784 34972 ft 456 kts 140°
2026-04-24 15:01 41.65094 26.77680 34974 ft 456 kts 140°
2026-04-24 15:01 41.59908 26.82554 34973 ft 456 kts 140°
2026-04-24 15:02 41.54714 26.87411 34976 ft 455 kts 140°
2026-04-24 15:02 41.49526 26.92254 34980 ft 455 kts 140°
2026-04-24 15:03 41.44342 26.97098 34976 ft 455 kts 140°
2026-04-24 15:03 41.39162 27.01949 34978 ft 455 kts 140°
2026-04-24 15:04 41.33980 27.06771 34985 ft 455 kts 141°
2026-04-24 15:04 41.28823 27.11552 34984 ft 455 kts 141°
2026-04-24 15:05 41.23634 27.16354 34985 ft 455 kts 141°
2026-04-24 15:05 41.18436 27.21144 34986 ft 455 kts 141°
2026-04-24 15:06 41.13244 27.25937 34985 ft 455 kts 141°
2026-04-24 15:06 41.08048 27.30729 34987 ft 455 kts 141°
2026-04-24 15:07 41.02807 27.35548 34988 ft 455 kts 142°
2026-04-24 15:07 40.97635 27.40288 34994 ft 455 kts 142°
2026-04-24 15:08 40.92348 27.44931 34995 ft 457 kts 146°
2026-04-24 15:08 40.86828 27.49118 34994 ft 458 kts 148°
2026-04-24 15:09 40.81199 27.53193 34993 ft 458 kts 148°
2026-04-24 15:09 40.75687 27.57298 34994 ft 458 kts 148°
2026-04-24 15:10 40.70169 27.61488 34994 ft 458 kts 148°
2026-04-24 15:10 40.64615 27.65701 34993 ft 458 kts 148°
2026-04-24 15:11 40.59122 27.69840 34993 ft 458 kts 148°
2026-04-24 15:11 40.53596 27.73995 34996 ft 458 kts 149°
2026-04-24 15:12 40.48033 27.78172 34996 ft 458 kts 149°
2026-04-24 15:12 40.39768 27.84340 34996 ft 457 kts 149°
2026-04-24 15:13 40.34250 27.88461 34995 ft 457 kts 149°
2026-04-24 15:13 40.28686 27.92626 34992 ft 457 kts 149°
2026-04-24 15:14 40.23157 27.96729 34990 ft 457 kts 150°
2026-04-24 15:14 40.17630 28.00816 34989 ft 456 kts 150°
2026-04-24 15:15 40.12142 28.04887 34991 ft 456 kts 150°
2026-04-24 15:15 40.06583 28.09006 34984 ft 456 kts 150°
2026-04-24 15:16 40.01062 28.13081 34982 ft 456 kts 150°
2026-04-24 15:16 39.95568 28.17122 34971 ft 456 kts 150°
2026-04-24 15:17 39.90036 28.21183 34965 ft 457 kts 151°
2026-04-24 15:17 39.84480 28.25232 34957 ft 457 kts 151°
2026-04-24 15:18 39.78920 28.29263 34958 ft 458 kts 151°
2026-04-24 15:18 39.73318 28.33324 34958 ft 458 kts 151°
2026-04-24 15:19 39.67777 28.37342 34958 ft 458 kts 152°
2026-04-24 15:19 39.62203 28.41381 34959 ft 457 kts 152°
2026-04-24 15:20 39.56646 28.45384 34962 ft 457 kts 152°
2026-04-24 15:20 39.51126 28.49354 34965 ft 456 kts 152°
2026-04-24 15:21 39.45552 28.53373 34964 ft 456 kts 152°
2026-04-24 15:21 39.40011 28.57348 34965 ft 455 kts 152°
2026-04-24 15:22 39.34473 28.61309 34959 ft 454 kts 152°
2026-04-24 15:23 39.26190 28.67225 34952 ft 453 kts 152°
2026-04-24 15:23 39.17926 28.73111 34948 ft 452 kts 153°
2026-04-24 15:25 39.05081 28.82247 34933 ft 452 kts 154°
2026-04-24 15:26 38.90382 28.92718 34925 ft 453 kts 155°
2026-04-24 15:27 38.73853 29.04408 34928 ft 452 kts 156°
2026-04-24 15:29 38.57336 29.16050 34918 ft 452 kts 157°
2026-04-24 15:31 38.38969 29.28894 34921 ft 452 kts 158°
2026-04-24 15:32 38.26969 29.37269 32748 ft 457 kts 159°
2026-04-24 15:33 38.15929 29.44942 30610 ft 444 kts 159°
2026-04-24 15:33 38.07880 29.50512 29025 ft 434 kts 159°
2026-04-24 15:34 38.02616 29.54148 27911 ft 428 kts 159°
2026-04-24 15:35 37.94857 29.59505 26328 ft 419 kts 159°
2026-04-24 15:35 37.89770 29.63008 25328 ft 413 kts 158°
2026-04-24 15:35 37.87256 29.64736 24831 ft 411 kts 158°
2026-04-24 15:36 37.84750 29.66454 24376 ft 407 kts 158°
2026-04-24 15:36 37.80634 29.69286 23592 ft 404 kts 156°
2026-04-24 15:36 37.78320 29.71343 23054 ft 409 kts 145°
2026-04-24 15:37 37.76273 29.73848 22504 ft 410 kts 140°
2026-04-24 15:37 37.74274 29.76399 21964 ft 407 kts 140°
2026-04-24 15:37 37.72286 29.78923 21463 ft 404 kts 140°
2026-04-24 15:37 37.70304 29.81423 20984 ft 401 kts 140°
2026-04-24 15:38 37.68336 29.83899 20511 ft 398 kts 140°
2026-04-24 15:38 37.66381 29.86362 20037 ft 396 kts 140°
2026-04-24 15:38 37.64438 29.88812 19573 ft 393 kts 139°
2026-04-24 15:38 37.62507 29.91245 19124 ft 391 kts 139°
2026-04-24 15:39 37.60593 29.93653 18685 ft 389 kts 139°
2026-04-24 15:39 37.58682 29.96054 18248 ft 387 kts 138°
2026-04-24 15:39 37.56780 29.98446 17768 ft 384 kts 138°
2026-04-24 15:39 37.54900 30.00807 17336 ft 381 kts 138°
2026-04-24 15:40 37.53035 30.03167 16912 ft 378 kts 138°
2026-04-24 15:40 37.51200 30.05507 16481 ft 375 kts 138°
2026-04-24 15:40 37.49453 30.07927 16053 ft 374 kts 130°
2026-04-24 15:40 37.47974 30.10628 15636 ft 372 kts 127°
2026-04-24 15:41 37.46525 30.13316 15232 ft 369 kts 127°
2026-04-24 15:41 37.45083 30.15976 14827 ft 367 kts 127°
2026-04-24 15:41 37.43646 30.18609 14440 ft 364 kts 128°
2026-04-24 15:41 37.42215 30.21222 14051 ft 361 kts 128°
2026-04-24 15:42 37.40790 30.23816 13656 ft 359 kts 127°
2026-04-24 15:42 37.39377 30.26388 13235 ft 356 kts 127°
2026-04-24 15:42 37.37981 30.28930 12689 ft 351 kts 127°
2026-04-24 15:42 37.36601 30.31442 12017 ft 348 kts 127°
2026-04-24 15:43 37.35232 30.33939 11446 ft 345 kts 127°
2026-04-24 15:43 37.33881 30.36408 10885 ft 341 kts 126°
2026-04-24 15:43 37.32544 30.38845 10343 ft 337 kts 126°
2026-04-24 15:43 37.31220 30.41257 9793 ft 334 kts 126°
2026-04-24 15:44 37.29911 30.43643 9207 ft 330 kts 126°
2026-04-24 15:44 37.28613 30.46006 8697 ft 327 kts 126°
2026-04-24 15:44 37.27321 30.48349 8308 ft 324 kts 126°
2026-04-24 15:44 37.26045 30.50666 7908 ft 322 kts 126°
2026-04-24 15:45 37.24775 30.52969 7521 ft 320 kts 126°
2026-04-24 15:45 37.23518 30.55245 7118 ft 315 kts 126°
2026-04-24 15:45 37.22276 30.57493 6576 ft 311 kts 126°
2026-04-24 15:45 37.21053 30.59706 6035 ft 307 kts 125°
2026-04-24 15:46 37.19841 30.61890 5499 ft 302 kts 125°
2026-04-24 15:46 37.18653 30.64034 4991 ft 297 kts 125°
2026-04-24 15:46 37.17485 30.66146 4564 ft 290 kts 125°
2026-04-24 15:46 37.16353 30.68189 4336 ft 281 kts 125°
2026-04-24 15:47 37.15263 30.70156 4201 ft 268 kts 125°
2026-04-24 15:47 37.14216 30.72037 4070 ft 257 kts 124°
2026-04-24 15:47 37.13219 30.73828 3937 ft 245 kts 125°
2026-04-24 15:47 37.12267 30.75541 3835 ft 233 kts 125°
2026-04-24 15:48 37.11371 30.77151 3705 ft 219 kts 125°
2026-04-24 15:48 37.10521 30.78678 3579 ft 208 kts 125°
2026-04-24 15:48 37.09703 30.80100 3473 ft 194 kts 131°
2026-04-24 15:48 37.08669 30.81110 3367 ft 186 kts 153°
2026-04-24 15:49 37.07433 30.81567 3257 ft 186 kts 173°
2026-04-24 15:49 37.06142 30.81483 3063 ft 186 kts 185°
2026-04-24 15:49 37.04861 30.81306 2812 ft 185 kts 185°
2026-04-24 15:49 37.03578 30.81129 2567 ft 185 kts 185°
2026-04-24 15:50 37.02299 30.80953 2343 ft 185 kts 185°
2026-04-24 15:50 37.01029 30.80778 2079 ft 180 kts 186°
2026-04-24 15:50 36.99839 30.80614 1868 ft 165 kts 186°
2026-04-24 15:50 36.98741 30.80463 1638 ft 154 kts 186°
2026-04-24 15:51 36.97691 30.80319 1421 ft 150 kts 185°
2026-04-24 15:51 36.96663 30.80178 1214 ft 148 kts 186°
2026-04-24 15:51 36.95650 30.80041 1037 ft 146 kts 185°
2026-04-24 15:51 36.94643 30.79904 822 ft 145 kts 186°
2026-04-24 15:52 36.93636 30.79761 637 ft 145 kts 184°
2026-04-24 15:52 36.92624 30.79620 436 ft 143 kts 183°
2026-04-24 15:52 36.91649 30.79491 261 ft 142 kts 184°
2026-04-24 15:52 36.90710 30.79367 195 ft 115 kts 186°
2026-04-24 15:53 36.90114 30.79281 191 ft 57 kts 186°
2026-04-24 15:53 36.89833 30.79244 189 ft 35 kts 186°
2026-04-24 15:53 36.89630 30.79227 191 ft 26 kts 172°
2026-04-24 15:53 36.89480 30.79294 197 ft 20 kts 156°
2026-04-24 15:54 36.89365 30.79357 194 ft 12 kts 157°
2026-04-24 15:54 36.89309 30.79424 199 ft 11 kts 105°
2026-04-24 15:54 36.89299 30.79516 196 ft 10 kts 97°
2026-04-24 15:54 36.89291 30.79603 203 ft 11 kts 96°
2026-04-24 15:55 36.89278 30.79738 192 ft 21 kts 96°
2026-04-24 15:55 36.89261 30.79923 192 ft 21 kts 97°
2026-04-24 15:55 36.89246 30.80101 200 ft 21 kts 96°
2026-04-24 15:55 36.89230 30.80277 199 ft 20 kts 96°
2026-04-24 15:56 36.89216 30.80446 201 ft 19 kts 96°
2026-04-24 15:56 36.89204 30.80590 192 ft 13 kts 86°
2026-04-24 15:56 36.89268 30.80651 195 ft 12 kts
2026-04-24 15:56 36.89347 30.80662 198 ft 11 kts
2026-04-24 15:57 36.89426 30.80672 192 ft 13 kts
2026-04-24 15:57 36.89511 30.80683 204 ft 13 kts
2026-04-24 15:57 36.89554 30.80648 203 ft 11 kts 299°
2026-04-24 15:57 36.89581 30.80560 204 ft 7 kts 327°
2026-04-24 15:58 36.89639 30.80556 201 ft 10 kts
2026-04-24 15:58 36.89706 30.80565 204 ft 8 kts
2026-04-24 15:58 36.89751 30.80571 192 ft 5 kts
2026-04-24 15:58 36.89780 30.80552 197 ft 5 kts 298°
2026-04-24 15:59 36.89785 30.80521 197 ft 2 kts 277°
2026-04-24 15:59 36.89786 30.80510 194 ft 1 kts 276°